Torna al catalogo

STARLINK-36855

AttivoComunicazioniSSO
NORAD 68121·PAYLOAD·🇺🇸 United States

Lanciato Mar 8, 2026 da Vandenberg Space Force Base

Loading…

Prossimi Passaggi (prossime 24 ore)

TLE

AggiornatoSource: CelesTrak SupGP

Epoca: Sep 14, 2026, 22:44 UTC

1 68121C 26044W   26257.94770833 -.00062556  00000+0 -19420-2 0  2577
2 68121  97.2853 217.0253 0001742  91.6162 137.8572 15.33467705    18

Traccia STARLINK-36855 in tempo reale con AllMySat

Download on the App Store